Weather History for KAXS - March, 2012

Change the Weather History Date:

Thursday, March 15, 2012

  Actual Average (KLTS) Record (KLTS)
Temperature  
Mean Temperature 70 °F -  
Max Temperature 80 °F 61 °F 83 °F (2013)
Min Temperature 60 °F 38 °F 26 °F (1999)
Cooling Degree Days 5    
Growing Degree Days 20 (Base 50)    
Moisture  
Dew Point 61 °F    
Average Humidity 78    
Maximum Humidity 100    
Minimum Humidity 48    
Precipitation  
Precipitation 0.00 in - - ()
Sea Level Pressure  
Sea Level Pressure 30.03 in    
Wind  
Wind Speed 14 mph (South)    
Max Wind Speed 22 mph    
Max Gust Speed 26 mph    
Visibility 7 miles    
Events Fog    
Averages and records for this station are not official NWS values.
T = Trace of Precipitation, MM = Missing Value Source: NWS Daily Summary

Daily Weather History Graph

Daily Weather History Graph

Search for Another Location

Airport or City:

Trip Planner

Search our weather history database for the weather conditions in past years. The results will help you decide how hot, cold, wet, or windy it might be!

Date:

Astronomy

Mar. 15, 2012 Rise Set
Actual Time 7:47 AM CDT 7:45 PM CDT
Civil Twilight 7:22 AM CDT 8:10 PM CDT
Nautical Twilight 6:52 AM CDT 8:39 PM CDT
Astronomical Twilight 6:23 AM CDT 9:09 PM CDT
Moon 3:02 AM CDT (3/15) 1:18 PM CDT (3/15)
Length of Visible Light 12h 48m
Length of Day
11h 58m
Last Quarter, 43% of the Moon is Illuminated
Mar 15
Last Quarter
Mar 22
New
Mar 30
First Quarter
Apr 6
Full
Apr 13
Last Quarter

Hourly Weather History & Observations

Time (CDT) Temp. Heat Index Dew Point Humidity Pressure Visibility Wind Dir Wind Speed Gust Speed Precip Events Conditions
12:15 AM 64.4 °F - 60.8 °F 88% 30.04 in 10.0 mi SSE 11.5 mph - N/A   Clear
12:35 AM 64.4 °F - 60.8 °F 88% 30.04 in 10.0 mi SSE 13.8 mph - N/A   Clear
12:55 AM 64.4 °F - 60.8 °F 88% 30.04 in 10.0 mi SSE 13.8 mph - N/A   Clear
1:15 AM 64.4 °F - 60.8 °F 88% 30.03 in 10.0 mi SSE 12.7 mph - N/A   Clear
1:35 AM 62.6 °F - 60.8 °F 94% 30.03 in 10.0 mi SSE 10.4 mph - N/A   Clear
1:55 AM 62.6 °F - 60.8 °F 94% 30.04 in 7.0 mi SSE 8.1 mph - N/A   Clear
2:15 AM 62.6 °F - 59.0 °F 88% 30.04 in 7.0 mi SE 8.1 mph - N/A   Clear
2:35 AM 60.8 °F - 59.0 °F 94% 30.04 in 5.0 mi SE 9.2 mph - N/A   Clear
2:55 AM 62.6 °F - 60.8 °F 94% 30.04 in 5.0 mi SSE 10.4 mph - N/A   Clear
3:15 AM 62.6 °F - 60.8 °F 94% 30.03 in 4.0 mi SSE 10.4 mph - N/A   Scattered Clouds
3:35 AM 62.6 °F - 60.8 °F 94% 30.03 in 4.0 mi SSE 11.5 mph - N/A   Scattered Clouds
3:55 AM 62.6 °F - 60.8 °F 94% 30.03 in 3.0 mi SSE 11.5 mph - N/A   Scattered Clouds
4:15 AM 62.6 °F - 60.8 °F 94% 30.02 in 3.0 mi SE 9.2 mph - N/A   Mostly Cloudy
4:35 AM 60.8 °F - 60.8 °F 100% 30.02 in 2.5 mi SSE 9.2 mph - N/A   Overcast
4:55 AM 60.8 °F - 60.8 °F 100% 30.02 in 1.2 mi SSE 9.2 mph - N/A   Overcast
5:15 AM 62.6 °F - 60.8 °F 94% 30.02 in 0.2 mi SSE 10.4 mph - N/A Fog Fog
5:35 AM 62.6 °F - 60.8 °F 94% 30.03 in 0.2 mi SSE 10.4 mph - N/A Fog Fog
5:55 AM 62.6 °F - 60.8 °F 94% 30.03 in 0.2 mi SSE 12.7 mph - N/A Fog Fog
6:15 AM 62.6 °F - 60.8 °F 94% 30.03 in 0.5 mi SSE 11.5 mph - N/A Fog Fog
6:35 AM 62.6 °F - 60.8 °F 94% 30.04 in 0.8 mi South 12.7 mph - N/A   Overcast
6:55 AM 62.6 °F - 60.8 °F 94% 30.05 in 1.2 mi South 11.5 mph - N/A   Overcast
7:15 AM 62.6 °F - 60.8 °F 94% 30.05 in 0.5 mi South 12.7 mph - N/A Fog Fog
7:35 AM 62.6 °F - 60.8 °F 94% 30.05 in 0.8 mi South 15.0 mph - N/A   Overcast
7:55 AM 62.6 °F - 60.8 °F 94% 30.06 in 3.0 mi South 12.7 mph - N/A   Overcast
8:15 AM 62.6 °F - 60.8 °F 94% 30.06 in 5.0 mi South 12.7 mph - N/A   Overcast
8:55 AM 64.4 °F - 62.6 °F 94% 30.06 in 7.0 mi South 15.0 mph - N/A   Overcast
9:15 AM 64.4 °F - 62.6 °F 94% 30.06 in 7.0 mi South 15.0 mph - N/A   Overcast
9:35 AM 64.4 °F - 62.6 °F 94% 30.07 in 7.0 mi South 16.1 mph - N/A   Overcast
9:55 AM 64.4 °F - 62.6 °F 94% 30.07 in 10.0 mi South 18.4 mph - N/A   Overcast
10:15 AM 66.2 °F - 62.6 °F 88% 30.07 in 10.0 mi South 16.1 mph - N/A   Overcast
10:35 AM 68.0 °F - 62.6 °F 83% 30.07 in 10.0 mi South 17.3 mph 21.9 mph N/A   Overcast
10:55 AM 68.0 °F - 62.6 °F 83% 30.08 in 10.0 mi South 21.9 mph 26.5 mph N/A   Overcast
11:15 AM 69.8 °F - 62.6 °F 78% 30.07 in 10.0 mi South 18.4 mph 26.5 mph N/A   Overcast
11:35 AM 69.8 °F - 62.6 °F 78% 30.07 in 10.0 mi South 20.7 mph - N/A   Overcast
11:55 AM 69.8 °F - 62.6 °F 78% 30.07 in 10.0 mi South 20.7 mph - N/A   Overcast
12:15 PM 71.6 °F - 62.6 °F 73% 30.07 in 10.0 mi South 20.7 mph - N/A   Overcast
12:35 PM 71.6 °F - 62.6 °F 73% 30.07 in 10.0 mi South 18.4 mph 26.5 mph N/A   Overcast
12:55 PM 73.4 °F - 62.6 °F 69% 30.06 in 10.0 mi South 19.6 mph - N/A   Mostly Cloudy
1:15 PM 73.4 °F - 62.6 °F 69% 30.06 in 10.0 mi South 18.4 mph 24.2 mph N/A   Mostly Cloudy
1:35 PM 75.2 °F - 62.6 °F 65% 30.06 in 10.0 mi South 19.6 mph - N/A   Mostly Cloudy
1:55 PM 75.2 °F - 60.8 °F 61% 30.05 in 10.0 mi South 16.1 mph - N/A   Scattered Clouds
2:15 PM 77.0 °F - 60.8 °F 57% 30.04 in 10.0 mi South 16.1 mph 23.0 mph N/A   Scattered Clouds
2:35 PM 77.0 °F - 60.8 °F 57% 30.04 in 10.0 mi South 18.4 mph - N/A   Scattered Clouds
2:55 PM 77.0 °F - 60.8 °F 57% 30.03 in 10.0 mi South 16.1 mph - N/A   Scattered Clouds
3:15 PM 77.0 °F - 60.8 °F 57% 30.02 in 10.0 mi South 17.3 mph 20.7 mph N/A   Scattered Clouds
3:35 PM 78.8 °F - 59.0 °F 51% 30.01 in 10.0 mi SSW 18.4 mph - N/A   Clear
3:55 PM 78.8 °F - 60.8 °F 54% 30.00 in 10.0 mi SSW 17.3 mph 21.9 mph N/A   Clear
4:15 PM 78.8 °F - 59.0 °F 51% 30.00 in 10.0 mi SSW 16.1 mph 25.3 mph N/A   Clear
4:35 PM 80.6 °F 81.1 °F 59.0 °F 48% 29.99 in 10.0 mi SSW 17.3 mph 21.9 mph N/A   Clear
4:55 PM 80.6 °F 81.1 °F 59.0 °F 48% 29.99 in 10.0 mi SSW 16.1 mph - N/A   Clear
5:15 PM 80.6 °F 81.1 °F 59.0 °F 48% 29.98 in 10.0 mi SSW 19.6 mph - N/A   Clear
5:35 PM 80.6 °F 81.1 °F 59.0 °F 48% 29.98 in 10.0 mi South 20.7 mph - N/A   Clear
5:55 PM 80.6 °F 81.1 °F 59.0 °F 48% 29.97 in 10.0 mi South 17.3 mph - N/A   Clear
6:15 PM 80.6 °F 81.1 °F 59.0 °F 48% 29.98 in 10.0 mi South 18.4 mph 21.9 mph N/A   Clear
6:35 PM 78.8 °F - 60.8 °F 54% 29.98 in 10.0 mi South 18.4 mph 24.2 mph N/A   Clear
6:55 PM 77.0 °F - 60.8 °F 57% 29.98 in 10.0 mi SSE 19.6 mph 23.0 mph N/A   Clear
7:15 PM 75.2 °F - 60.8 °F 61% 29.99 in 10.0 mi South 19.6 mph 23.0 mph N/A   Clear
7:35 PM 73.4 °F - 60.8 °F 65% 29.99 in 10.0 mi SSE 18.4 mph - N/A   Clear
7:55 PM 71.6 °F - 60.8 °F 69% 30.00 in 10.0 mi South 19.6 mph - N/A   Clear
8:15 PM 71.6 °F - 60.8 °F 69% 30.01 in 10.0 mi SSE 12.7 mph - N/A   Clear
8:35 PM 69.8 °F - 60.8 °F 73% 30.02 in 10.0 mi SSE 15.0 mph - N/A   Clear
8:55 PM 69.8 °F - 60.8 °F 73% 30.02 in 10.0 mi SSE 13.8 mph - N/A   Clear
9:15 PM 69.8 °F - 60.8 °F 73% 30.03 in 10.0 mi SSE 12.7 mph - N/A   Clear
9:35 PM 66.2 °F - 60.8 °F 83% 30.03 in 10.0 mi SSE 10.4 mph - N/A   Clear
9:55 PM 64.4 °F - 60.8 °F 88% 30.04 in 10.0 mi SSE 9.2 mph - N/A   Clear
10:15 PM 64.4 °F - 60.8 °F 88% 30.04 in 10.0 mi SE 9.2 mph - N/A   Clear
10:35 PM 64.4 °F - 60.8 °F 88% 30.04 in 10.0 mi SE 9.2 mph - N/A   Clear
10:55 PM 64.4 °F - 60.8 °F 88% 30.04 in 10.0 mi SSE 11.5 mph - N/A   Clear
11:15 PM 64.4 °F - 60.8 °F 88% 30.04 in 10.0 mi SSE 10.4 mph - N/A   Clear
11:35 PM 62.6 °F - 60.8 °F 94% 30.04 in 7.0 mi SE 9.2 mph - N/A   Clear
11:55 PM 62.6 °F - 60.8 °F 94% 30.04 in 7.0 mi SSE 8.1 mph - N/A   Clear